Location: Fenile
(46.0500°N, 9.5500°E)
Time: 17:50:13
(UTC+00:00)

Cosmos 2218 Rocket - Pass Details

Date: 03 March 2021
Orbit: 955 x 1007 km, 82.9° (Epoch: 15 April)

Event Time Altitude Azimuth Distance (km) Brightness Sun altitude
Rises 18:47:17 0° 173° (S) 3,719 6.9 -17.4°
Reaches altitude 10° 18:49:50 10° 169° (S) 2,776 6.2 -17.9°
Maximum altitude 18:56:04 58° 92° (E) 1,164 4.0 -18.9°
Drops below altitude 10° 19:02:20 10° 16° (NNE) 2,788 6.3 -20.0°
Sets 19:04:54 0° 12° (NNE) 3,737 7.1 -20.4°
